Theta_e
299 298 295 295 298 299 298 311 314 320 322 320 317 316 322 327 328 328 325 324 328 330 334 338 340 343 343 342 342 343 341 342 345 344 341 341 337 341 342 346 350 351 351 352
297 295 301 303 300 299 304 312 313 319 323 317 316 317 323 326 327 329 329 320 326 329 333 336 339 342 342 341 341 342 341 341 345 346 345 344 342 343 344 346 350 352 352 352
297 300 303 301 298 298 294 307 311 312 319 319 317 314 319 325 328 330 332 324 328 330 331 334 337 340 340 340 339 342 341 341 344 346 345 344 345 345 344 345 348 350 353 352
298 303 301 299 298 298 290 301 317 315 308 303 315 301 314 320 322 326 328 323 326 329 333 334 336 338 339 340 341 343 342 340 342 346 345 344 343 340 343 344 347 350 353 353
297 299 299 297 299 300 297 302 316 314 308 305 311 302 306 320 318 322 326 325 327 330 332 334 336 339 340 341 341 341 342 339 342 345 345 344 342 342 344 346 346 349 352 353
299 302 300 300 302 302 309 311 309 306 304 297 305 304 304 313 317 321 325 328 327 329 332 335 338 340 340 341 341 342 341 340 343 344 343 342 340 340 343 344 343 347 351 352
296 298 300 301 295 297 300 299 294 293 294 294 300 303 303 315 322 324 324 326 326 330 331 333 336 337 337 340 341 342 340 339 343 344 342 342 341 341 343 345 344 345 347 350
289 289 297 300 298 294 296 298 294 288 290 294 302 299 304 319 322 326 327 329 325 328 331 332 336 336 336 341 342 342 340 339 342 345 346 345 343 342 344 346 346 345 348 349
288 291 300 300 299 300 294 294 298 293 289 294 298 304 312 320 322 325 327 329 327 328 331 333 336 338 338 341 342 341 339 339 340 343 345 346 343 344 344 346 347 344 347 349
293 288 295 300 302 302 296 299 292 290 286 287 296 298 302 314 317 324 325 328 329 330 331 333 335 338 341 341 343 345 343 341 342 343 345 347 344 345 344 345 345 345 346 348
293 292 294 296 293 296 297 294 293 293 291 291 291 297 317 317 318 322 326 329 330 331 332 332 334 337 340 341 340 340 341 343 344 345 346 348 349 346 344 345 345 345 345 348
296 290 289 294 297 297 296 295 294 291 292 293 295 298 323 323 326 324 325 328 329 331 334 336 336 337 339 339 339 337 339 342 341 341 345 346 347 348 349 349 348 348 348 348
296 290 287 290 292 295 293 293 292 293 296 294 294 298 322 323 323 326 324 326 327 328 330 332 335 337 337 337 337 337 338 340 344 341 339 341 342 343 345 346 348 350 350 350
303 291 289 287 288 292 291 295 293 291 290 292 296 306 317 318 320 323 325 326 327 328 328 329 331 334 334 334 334 336 338 341 341 342 339 340 341 341 341 342 343 345 349 350
297 291 292 293 294 295 294 296 299 291 293 295 299 307 314 318 319 321 323 324 324 323 323 326 328 330 333 334 335 336 338 340 340 340 338 339 341 343 342 341 341 343 345 348
298 294 293 294 297 296 293 300 297 306 304 305 308 309 319 320 318 319 320 320 318 318 319 320 323 326 326 327 326 328 330 334 341 338 335 338 344 342 341 341 341 341 342 346
295 294 292 288 294 296 292 297 295 304 308 309 304 310 317 313 315 314 313 314 314 314 316 317 318 320 320 320 321 320 323 325 325 326 328 329 334 340 342 343 340 340 343 345
292 293 291 288 290 284 295 305 309 307 309 310 312 316 315 312 310 311 311 310 310 312 313 315 316 317 317 317 317 318 319 320 320 321 323 324 327 328 329 330 330 333 338 340
293 291 288 288 288 292 296 299 300 301 305 313 314 314 310 310 309 306 310 311 309 308 309 313 316 314 313 313 316 314 313 314 315 316 318 320 323 324 325 325 325 325 328 332
292 291 289 287 286 285 295 301 304 303 297 312 311 308 308 310 303 304 308 310 309 310 312 311 310 309 309 309 310 309 308 309 310 312 314 316 318 319 319 322 323 324 326 327
287 287 285 285 284 289 297 301 303 291 292 309 310 309 309 307 307 306 308 309 310 308 307 308 307 307 307 308 307 305 306 306 308 310 311 311 312 314 315 316 318 318 318 320
287 284 284 284 284 284 299 299 295 297 302 310 310 310 309 306 307 308 309 307 305 305 305 305 304 303 304 306 306 304 303 305 307 307 307 308 308 310 311 312 313 313 313 313
286 290 288 289 288 295 298 298 299 299 301 309 308 307 306 306 306 308 306 305 305 304 303 304 303 302 303 303 304 302 303 304 303 303 303 304 306 306 307 309 310 308 308 309
291 294 291 293 295 297 299 300 301 302 303 307 307 307 308 306 306 306 306 305 302 302 302 302 301 300 300 303 302 302 302 302 301 301 301 301 302 302 302 304 306 305 304 305
292 292 291 291 295 298 300 300 300 303 306 307 307 308 307 307 306 306 303 302 301 301 300 300 300 300 299 301 301 301 301 301 299 298 299 298 299 299 299 301 302 304 304 302
294 292 290 290 295 295 296 300 303 302 304 306 306 306 308 308 304 304 302 302 301 300 299 298 298 299 299 299 300 300 300 299 298 297 297 297 297 297 297 297 298 300 300 299
Wind_Speed
3 5 6 5 5 5 3 4 8 5 2 6 2 5 4 8 7 5 6 12 13 14 12 12 11 10 9 7 7 7 7 6 5 3 3 3 3 1 1 1 4 4 4 4
5 7 7 6 4 5 5 6 5 5 2 4 4 5 7 12 11 4 6 8 14 8 10 11 11 10 10 9 8 6 7 9 6 3 3 3 3 2 2 1 2 4 4 4
7 4 10 5 5 5 2 6 5 7 5 6 8 4 5 7 8 6 5 7 10 15 13 11 12 11 9 10 10 9 9 9 6 5 4 3 3 3 2 1 1 3 4 4
3 3 8 6 4 5 4 8 10 14 5 5 2 3 4 10 13 10 7 7 10 13 15 14 14 12 13 12 8 7 6 8 6 7 4 5 4 3 3 3 2 3 3 4
6 6 5 4 6 6 7 7 15 11 5 5 6 2 3 10 12 13 8 8 14 15 17 16 17 17 14 11 11 7 7 6 6 6 6 4 3 2 2 2 4 3 2 2
5 1 5 8 5 10 5 9 10 6 4 2 8 6 5 12 22 21 19 16 14 16 18 18 17 13 11 9 9 8 9 6 6 6 6 7 6 5 3 3 3 3 2 2
4 4 4 4 4 2 4 5 3 4 1 6 4 5 7 10 11 25 29 20 15 16 15 14 14 13 12 12 11 8 9 8 7 6 6 7 7 6 5 5 4 4 3 2
5 5 7 5 9 8 8 9 7 6 5 3 3 6 4 6 6 11 11 17 9 13 13 13 12 10 6 6 5 8 10 8 7 6 6 5 6 4 4 4 3 4 3 4
5 6 4 6 5 10 5 4 6 8 3 4 2 3 5 7 5 11 12 13 11 13 13 16 12 9 7 7 4 5 8 6 6 6 4 4 5 5 5 5 3 4 3 3
3 2 3 2 4 3 6 6 4 3 5 3 2 3 3 3 3 7 13 11 9 9 12 12 11 13 4 6 2 4 5 5 6 6 5 4 5 4 2 2 2 3 2 3
4 3 6 1 1 7 2 1 7 6 4 7 4 5 2 4 5 8 8 8 9 10 11 13 14 12 10 8 5 7 5 6 4 4 5 5 4 4 5 4 4 4 3 3
1 5 3 2 2 2 1 4 5 7 4 2 3 3 2 5 8 10 9 8 7 6 8 8 7 10 13 10 8 7 7 8 5 2 4 4 3 4 4 4 4 4 4 3
5 3 3 6 7 5 6 3 5 5 4 4 5 4 5 7 7 9 10 9 8 7 5 6 8 9 10 9 7 7 8 6 5 4 3 5 4 4 4 5 3 1 2 4
5 3 4 7 5 3 4 5 3 5 5 5 3 10 10 10 9 11 10 11 9 9 7 7 6 5 5 6 5 5 7 6 6 3 2 2 4 5 4 4 6 6 5 2
5 4 3 4 3 5 5 7 6 1 5 7 9 12 15 13 13 11 11 12 12 12 11 8 7 6 5 6 6 5 4 5 5 6 1 2 1 0 1 3 4 4 4 4
7 4 4 5 6 7 5 11 9 5 3 5 12 5 7 10 10 10 9 10 11 12 11 12 11 10 8 8 8 7 6 5 4 4 5 7 2 3 2 1 3 3 3 3
4 7 2 3 7 3 5 7 4 4 1 6 7 8 16 14 13 11 8 9 10 11 13 13 14 11 9 9 9 10 9 8 10 10 9 8 7 3 3 1 1 2 3 2
3 4 3 1 7 3 2 4 8 6 6 6 4 17 14 14 7 8 7 11 9 9 11 12 12 11 10 9 9 9 10 9 10 10 8 7 7 7 7 6 4 6 4 3
5 5 4 4 2 4 2 3 3 1 4 3 9 14 14 14 13 8 7 10 10 10 9 8 9 9 8 10 9 8 11 9 11 10 9 8 7 6 5 4 4 8 4 3
5 7 5 3 5 8 1 2 4 3 2 3 7 14 17 13 6 5 5 10 10 10 10 11 7 9 9 6 7 11 9 10 10 8 8 8 8 9 10 9 9 5 3 4
4 4 4 1 1 6 2 8 7 5 7 7 12 14 12 4 2 7 7 8 9 8 9 9 9 9 7 5 6 11 8 9 5 5 7 8 8 8 8 6 6 6 7 7
1 3 1 2 3 3 6 5 1 4 4 9 8 9 8 12 14 13 7 10 9 10 9 8 9 7 5 5 9 8 10 4 5 6 7 7 7 7 6 6 6 8 7 7
2 5 4 5 6 5 5 4 4 4 2 2 8 5 10 14 12 12 11 11 9 8 7 5 8 8 6 6 6 8 3 4 6 6 7 6 7 7 7 7 7 6 7 6
2 2 2 3 2 3 5 5 3 3 1 4 10 11 10 12 11 11 9 8 7 6 7 5 7 7 5 4 6 5 4 4 6 7 6 6 7 6 7 6 6 6 6 5
4 2 3 2 5 2 2 3 5 5 6 12 10 12 11 11 10 8 6 7 7 6 5 4 5 6 5 5 5 5 5 5 7 7 6 6 6 7 6 6 5 5 5 5
3 5 5 6 4 3 4 4 4 0 5 8 14 10 13 13 11 10 5 4 5 7 5 5 5 6 5 5 5 5 5 6 6 7 5 5 5 5 6 6 5 9 8 8
Wind_Direction
185 104 203 188 196 143 127 77 101 80 8 85 359 359 168 177 232 189 155 181 179 183 182 172 163 158 149 154 159 177 153 159 140 149 133 132 138 157 142 212 165 173 165 163
72 217 198 198 151 122 105 96 78 71 29 69 123 323 159 180 207 202 162 181 183 151 162 157 163 167 169 168 174 177 168 161 171 167 140 139 144 160 148 180 181 168 172 180
152 215 150 157 150 132 139 141 168 139 126 45 116 6 127 183 216 235 210 188 184 159 169 168 167 176 167 178 182 185 176 169 175 144 109 89 92 88 106 160 186 231 170 179
184 243 134 139 156 133 183 189 152 141 112 150 162 204 234 190 215 228 229 180 181 176 175 174 170 181 183 194 183 176 175 169 175 157 146 156 165 155 191 163 169 197 200 180
236 158 153 142 181 172 223 166 158 160 100 104 190 144 232 165 206 227 241 192 187 181 176 181 184 188 187 178 186 180 164 177 165 178 173 159 160 164 129 127 160 179 228 195
211 186 143 198 180 176 122 88 49 60 73 313 192 185 228 189 201 198 201 224 190 187 188 185 190 178 178 178 176 174 167 190 172 177 172 166 176 181 151 164 186 193 191 195
331 253 213 154 135 87 78 75 70 45 68 219 240 128 238 225 206 195 198 204 193 190 186 175 178 179 178 180 179 173 163 188 177 176 181 174 171 177 201 184 185 175 170 187
155 296 169 185 169 176 183 160 152 155 189 219 100 215 260 299 216 204 199 207 179 182 175 171 169 172 159 163 180 181 177 181 172 172 189 193 176 179 198 202 179 208 194 180
150 268 265 195 150 140 189 171 185 104 24 96 231 299 298 15 64 155 149 158 163 172 167 160 131 105 136 124 175 187 153 160 169 186 181 199 193 182 200 214 179 189 205 190
218 298 260 271 117 45 157 165 99 14 138 183 297 281 251 3 54 125 144 137 127 134 146 143 147 116 119 116 303 151 153 174 166 172 183 196 196 199 180 201 198 214 248 226
137 108 290 111 147 169 116 89 52 107 100 150 155 253 217 231 160 138 130 132 139 135 140 158 172 168 127 124 133 98 89 104 130 178 169 180 185 195 180 185 214 193 222 232
130 141 222 162 304 266 75 143 132 121 223 39 130 247 342 94 117 136 142 136 107 93 123 135 141 144 146 153 138 123 105 78 58 131 137 140 168 189 181 187 201 214 214 209
168 18 44 1 355 7 49 22 101 101 92 203 136 218 138 117 117 144 147 133 122 124 121 102 124 151 146 142 156 140 113 132 99 81 96 97 86 91 92 88 77 44 230 206
105 82 145 174 193 188 13 2 94 104 115 168 207 148 157 144 133 133 134 129 118 117 125 103 93 99 119 120 164 143 140 150 155 171 162 93 107 101 96 88 84 70 33 18
82 82 45 37 240 100 74 23 343 302 167 147 186 172 172 153 150 142 139 133 127 122 110 106 101 94 101 120 95 88 99 179 188 184 127 98 126 357 73 108 96 78 57 30
351 31 333 2 358 113 76 20 11 55 85 48 112 108 136 138 126 135 132 126 120 115 104 99 85 86 86 87 78 73 54 20 132 141 73 40 357 182 217 206 128 94 59 13
102 128 250 291 339 321 17 351 337 320 256 163 156 179 145 146 147 142 140 134 128 122 114 98 94 80 74 74 82 75 64 59 68 65 62 53 32 66 77 84 96 60 57 59
79 76 4 77 8 70 284 182 95 79 16 338 80 137 143 133 104 104 119 118 105 102 97 99 98 98 93 84 64 72 60 49 57 54 51 51 54 47 41 63 38 74 31 30
23 126 78 107 82 294 283 14 49 60 5 6 132 126 130 120 104 75 104 112 114 100 75 75 99 106 101 90 90 74 65 53 49 36 28 21 27 37 63 75 62 55 19 3
36 61 107 149 149 196 169 308 297 136 29 101 139 137 143 155 136 153 145 122 115 112 121 120 105 87 80 79 98 82 70 62 49 33 29 24 21 27 26 9 18 23 41 18
6 5 107 84 141 294 271 294 299 95 236 161 161 159 167 178 210 132 127 109 116 116 107 93 84 88 96 87 88 83 80 69 68 50 44 38 27 35 20 27 27 19 32 44
117 105 164 82 86 257 354 333 94 232 284 172 157 180 145 130 128 133 144 118 109 111 105 105 103 84 69 64 86 82 72 45 40 54 57 45 40 42 34 30 33 34 30 36
348 171 183 156 216 254 275 252 284 238 267 198 122 109 134 139 142 144 135 132 134 120 109 96 100 88 51 47 74 84 74 93 84 67 57 48 44 39 32 38 41 46 37 36
328 119 97 56 303 324 331 334 17 2 211 112 109 125 141 138 139 135 145 143 123 123 119 118 113 105 101 88 77 86 75 68 80 75 63 53 51 46 38 40 41 47 37 35
207 41 142 283 274 288 350 11 2 63 88 103 112 127 128 140 143 141 145 137 130 124 112 128 129 127 134 120 104 98 95 96 83 75 63 59 56 45 42 41 34 46 42 42
186 181 152 215 227 149 255 315 349 281 146 139 131 139 149 150 140 129 129 136 144 149 154 143 141 133 132 130 124 112 107 100 102 86 66 59 62 55 51 46 36 16 19 31